Total_Precipitation_Accumulation
0.19 0.26 0.49 0.48 0.36 0.34 0.35 0.37 0.42 0.42 0.39 0.37 0.41 0.42 0.44 0.44 0.43 0.38 0.34 0.38 0.41 0.44 0.50 0.55 0.61 0.65 0.67 0.74 0.75 0.75 0.71 0.71 0.90 1.00 1.17 1.38 1.63 1.86 2.08 2.25 2.26 1.79 1.59
0.06 0.12 0.37 0.41 0.34 0.30 0.30 0.31 0.37 0.39 0.39 0.37 0.36 0.34 0.33 0.32 0.30 0.30 0.37 0.42 0.43 0.44 0.47 0.51 0.55 0.58 0.60 0.57 0.60 0.59 0.65 0.85 1.10 1.34 1.67 1.82 1.95 2.07 2.15 2.24 2.26 1.70 1.47
0.04 0.06 0.18 0.31 0.29 0.26 0.27 0.29 0.30 0.33 0.34 0.36 0.35 0.31 0.29 0.29 0.30 0.30 0.36 0.39 0.41 0.41 0.39 0.43 0.48 0.52 0.56 0.59 0.56 0.59 0.73 1.01 1.42 1.82 2.09 1.97 1.68 1.94 2.02 2.13 2.05 1.48 1.36
0.03 0.04 0.07 0.21 0.24 0.22 0.24 0.27 0.26 0.27 0.26 0.28 0.28 0.28 0.28 0.30 0.32 0.35 0.37 0.38 0.42 0.42 0.45 0.51 0.54 0.47 0.44 0.49 0.55 0.67 0.83 1.09 1.47 1.95 1.96 1.71 1.46 1.56 1.72 1.63 1.58 1.36 1.27
0.05 0.04 0.09 0.18 0.20 0.19 0.20 0.25 0.24 0.21 0.23 0.25 0.25 0.26 0.28 0.31 0.34 0.36 0.39 0.43 0.49 0.56 0.57 0.58 0.52 0.42 0.40 0.44 0.54 0.70 0.90 1.22 1.50 1.72 1.46 1.55 1.67 1.58 1.51 1.42 1.42 1.26 1.07
0.07 0.05 0.11 0.18 0.19 0.19 0.19 0.20 0.21 0.21 0.24 0.27 0.30 0.29 0.29 0.31 0.37 0.42 0.44 0.47 0.47 0.56 0.56 0.58 0.48 0.44 0.41 0.45 0.59 0.73 1.02 1.34 1.40 1.14 1.08 1.28 1.24 1.45 1.39 1.34 1.25 1.10 0.88
0.06 0.07 0.10 0.19 0.21 0.22 0.21 0.22 0.22 0.21 0.21 0.24 0.28 0.28 0.31 0.38 0.43 0.50 0.52 0.50 0.43 0.50 0.51 0.51 0.52 0.51 0.51 0.52 0.60 0.67 0.91 1.23 1.15 0.96 0.99 1.19 1.05 1.19 1.31 1.31 1.26 1.05 0.86
0.08 0.07 0.12 0.20 0.24 0.24 0.25 0.26 0.26 0.24 0.23 0.24 0.27 0.32 0.37 0.43 0.44 0.47 0.54 0.55 0.47 0.47 0.45 0.48 0.49 0.49 0.53 0.57 0.62 0.65 0.78 0.95 0.83 0.75 0.81 0.90 0.91 1.05 1.27 1.19 1.12 1.02 0.84
0.31 0.18 0.17 0.18 0.23 0.26 0.30 0.30 0.30 0.26 0.26 0.28 0.32 0.33 0.34 0.36 0.39 0.45 0.55 0.55 0.50 0.48 0.44 0.48 0.46 0.47 0.54 0.55 0.62 0.64 0.77 0.93 0.82 0.86 0.74 0.71 0.77 0.97 1.24 1.15 1.04 1.02 0.92
0.58 0.36 0.29 0.29 0.35 0.35 0.34 0.32 0.34 0.29 0.28 0.29 0.33 0.32 0.37 0.38 0.42 0.50 0.56 0.59 0.54 0.54 0.50 0.53 0.53 0.54 0.59 0.59 0.67 0.78 0.92 0.89 0.88 0.98 0.81 0.58 0.73 0.99 1.28 1.29 1.22 1.21 1.06
0.91 0.77 0.67 0.57 0.50 0.55 0.49 0.41 0.48 0.45 0.44 0.47 0.52 0.55 0.69 0.88 0.83 0.91 0.80 0.80 0.71 0.74 0.78 0.79 0.79 0.76 0.78 0.71 0.86 0.99 0.94 1.03 1.19 1.10 0.87 0.63 0.78 1.17 1.37 1.40 1.33 1.30 1.26
1.22 1.14 1.12 0.92 0.71 0.65 0.60 0.77 1.00 0.94 0.96 1.05 1.14 1.13 1.33 1.39 1.41 1.13 1.15 1.22 1.20 1.28 1.30 1.36 1.47 1.25 1.01 0.86 1.08 1.22 1.07 1.09 1.21 0.97 0.72 0.73 0.92 1.30 1.47 1.38 1.33 1.32 1.33
1.69 1.46 1.25 1.23 1.14 1.13 1.16 1.16 1.23 1.41 1.52 1.63 1.71 1.69 1.88 1.61 1.47 1.36 1.53 1.72 1.68 1.61 1.51 1.76 1.95 1.60 1.53 1.66 1.66 1.50 1.39 1.26 1.30 1.10 0.94 0.99 1.15 1.47 1.62 1.48 1.46 1.41 1.26
2.35 2.26 2.14 1.90 1.73 1.73 1.58 1.40 1.34 1.37 1.46 1.55 1.67 1.73 1.90 1.99 1.89 1.91 2.05 1.88 1.85 1.89 2.07 2.04 2.24 2.10 1.94 1.82 1.78 1.90 1.83 1.57 1.54 1.45 1.41 1.40 1.46 1.63 1.77 1.66 1.61 1.59 1.44
2.88 3.11 3.52 3.25 2.61 2.24 1.96 1.68 1.38 1.35 1.25 1.23 1.34 1.56 1.72 1.88 2.02 2.12 1.94 1.82 1.60 1.81 2.07 2.18 1.97 2.15 2.15 2.15 2.10 2.10 2.13 1.89 1.72 1.63 1.68 1.81 1.76 1.74 1.88 1.93 1.86 1.84 1.77
3.73 3.73 3.84 4.19 3.54 2.77 2.24 1.90 1.57 1.29 1.31 1.33 1.36 1.38 1.57 1.74 1.82 1.88 1.81 1.75 1.68 1.78 1.98 2.00 1.97 2.22 2.31 2.26 1.95 1.83 1.83 1.88 1.80 1.64 1.77 1.86 1.89 1.72 1.80 2.05 2.15 2.13 2.13
4.31 4.42 4.45 4.66 4.23 3.62 3.04 2.45 1.91 1.61 1.39 1.44 1.50 1.35 1.35 1.50 1.55 1.64 1.66 1.61 1.65 1.67 1.69 1.68 1.74 1.94 1.94 1.88 1.72 1.61 1.65 1.70 1.78 1.78 1.65 1.69 1.80 1.85 1.78 1.94 2.10 2.14 2.27
4.98 5.19 5.21 4.96 4.76 4.23 3.58 2.99 2.55 2.21 1.90 1.65 1.53 1.37 1.19 1.27 1.30 1.38 1.30 1.32 1.34 1.34 1.33 1.42 1.47 1.64 1.77 1.85 1.83 1.67 1.76 1.82 1.72 1.82 1.78 1.70 1.93 1.80 2.03 2.14 2.12 2.08 2.30
6.16 6.57 6.32 5.62 5.10 4.51 3.88 3.36 3.12 2.86 2.44 2.01 1.82 1.62 1.41 1.25 1.20 1.23 1.24 1.26 1.08 1.11 1.13 1.07 1.25 1.48 1.68 1.74 1.54 1.61 1.51 1.53 1.55 1.49 1.68 1.56 1.70 1.83 2.00 2.07 2.16 2.09 2.36
6.49 7.16 7.03 6.34 5.42 4.67 4.22 3.71 3.45 3.11 2.66 2.16 1.91 1.77 1.55 1.42 1.23 1.14 1.07 1.04 0.91 1.02 1.14 1.20 1.47 1.48 1.43 1.47 1.29 1.46 1.37 1.20 1.29 1.38 1.37 1.45 1.50 1.39 1.65 1.88 2.07 1.78 2.12
5.45 5.99 5.85 5.21 4.68 4.07 3.52 2.93 2.75 2.46 2.20 1.94 1.73 1.53 1.49 1.41 1.21 1.15 1.04 1.14 0.96 0.97 0.99 0.99 1.14 1.22 1.17 1.19 1.45 1.53 1.30 1.11 1.17 1.20 1.17 1.31 1.35 1.34 1.65 1.99 2.08 2.01 1.77
3.94 4.18 3.69 3.47 3.42 3.00 2.66 2.53 2.36 2.12 1.87 1.65 1.53 1.47 1.24 1.18 1.12 1.05 1.12 1.06 1.00 1.04 0.99 1.00 1.12 1.17 1.15 1.14 1.31 1.48 1.37 1.43 1.34 1.02 1.19 1.24 1.25 1.42 1.59 1.70 1.95 2.15 1.84
2.75 2.73 2.49 2.41 2.67 2.57 2.49 2.38 2.30 2.19 2.06 1.79 1.48 1.41 1.17 1.01 0.99 1.03 1.04 1.07 1.08 0.92 0.99 1.05 1.01 1.06 1.09 1.04 1.06 1.28 1.36 1.42 1.26 1.05 1.08 1.10 1.20 1.43 1.48 1.59 1.48 1.62 1.77
1.87 1.96 2.18 2.25 2.33 2.22 2.23 2.01 1.80 1.62 1.46 1.34 1.28 1.26 1.25 1.09 0.99 0.92 0.95 1.08 1.08 0.95 1.08 0.83 0.88 1.03 1.08 0.94 0.91 0.92 0.96 1.13 1.26 1.28 1.16 1.10 1.14 1.20 1.25 1.29 1.32 1.40 1.48
1.44 1.66 2.02 2.10 2.10 1.98 1.91 1.88 1.87 1.75 1.68 1.53 1.46 1.50 1.47 1.43 1.25 1.01 0.95 1.07 1.14 1.09 1.12 1.02 1.15 1.02 0.93 0.86 0.84 0.92 0.96 0.94 0.91 1.16 1.26 1.20 1.13 0.96 0.98 1.05 1.09 1.14 1.20
1.29 1.39 1.58 1.74 1.91 1.96 1.97 1.99 1.91 1.84 1.85 1.67 1.51 1.42 1.39 1.39 1.30 1.21 1.12 1.23 1.24 1.18 1.18 1.10 1.14 1.10 1.04 1.00 0.88 0.85 1.05 1.02 0.91 1.07 1.04 1.05 1.03 0.79 0.83 0.93 0.95 1.01 1.08